Regional Weather Roundup
Issued by NWS

Home | Current Version | Previous Version | Graphics & Text | Print | Product List | Glossary On
Versions: 1 2 3 4 5 6 7 8 9 10 11 12 13 14 15 16 17 18 19 20 21 22 23 24 25 26 27 28 29 30 31 32 33 34 35 36 37 38 39 40 41 42 43 44 45 46 47 48 49 50
000
ASUS45 KTFX 271304
RWRMT
MONTANA HOURLY WEATHER ROUNDUP
NATIONAL WEATHER SERVICE GREAT FALLS MT
704 AM MDT FRI MAR 27 2015

NOTE: "FAIR" INDICATES FEW OR NO CLOUDS BELOW 12000 FEET WITH NO
SIGNIFICANT WEATHER AND/OR OBSTRUCTIONS TO VISIBILITY.

* THESE STATIONS ARE NOT UNDER NWS QUALITY CONTROL. THEY DO NOT
   REPORT WEATHER SUCH AS PRECIPITATION OR FOG.

MTZ001>007-043-271400-
WEST OF THE DIVIDE
CITY           SKY/WX    TMP DP  RH WIND       PRES   REMARKS
KALISPELL      FOG       32  32 100 CALM      30.18F VSB 1 1/4
MISSOULA       FOG       34  32  92 CALM      30.24S VSB 3/4
BUTTE          CLEAR     28  25  89 CALM      30.25S
MULLAN PASS    CLEAR     39  37  93 S8        30.19F WCI  33
* ESSEX        N/A       31  30  96 N/A        N/A
* LINCOLN      N/A       40  35  82 NE3        N/A
* LOOKOUT PASS N/A       35  35 100 S2         N/A
* POLSON       N/A       37  37 100 N/A        N/A
* SEELEY LAKE  N/A       27  26  96 NE1        N/A
* THOMP F APT  CLEAR     34  28  79 NE3        N/A
* YAAK HILL    N/A       36  34  92 N/A        N/A
$$

MTZ008-052>055-271400-
SOUTHWEST MONTANA
CITY           SKY/WX    TMP DP  RH WIND       PRES   REMARKS
BOZEMAN        CLEAR     32  28  85 SE10      30.21R WCI  24
DILLON         CLEAR     39  30  70 S7        30.23F WCI  34
* W YELLOWSTON CLEAR     24  23  96 N/A        N/A
* BOULDER HILL N/A       45  27  49 SW10G15    N/A
* HOMESTAKE PS N/A       40  31  70 W8         N/A   WCI  35
* MONIDA PASS  N/A       31  28  89 SE11       N/A   WCI  22
* RAYNOLDS PAS N/A       30  20  66 SW8        N/A   WCI  22
* WHITEHALL    N/A       42  34  73 SW6        N/A
* WISE RIVER   N/A       29  28  96 SW3        N/A
$$

MTZ009>010-012-014-046-048-049-054-271400-
EAST SLOPES AND CENTRAL MONTANA
CITY           SKY/WX    TMP DP  RH WIND       PRES   REMARKS
CUT BANK       PTCLDY    48  34  59 W17       30.03F
GREAT FALLS    PTCLDY    41  30  65 SW8       30.06S
HELENA         MOCLDY    43  34  71 NE3       30.15F
MALMSTROM AFB  PTCLDY    41  32  70 S9        30.07S
* DEARBORN     N/A       57  35  44 SE3G8      N/A
* EAST GLACIER N/A       45  35  68 W26G35     N/A
* MONARCH      N/A       42  24  49 S8         N/A
* PENDROY      N/A       51  22  32 W9         N/A
* ROGERS PASS  N/A       44  34  68 SE11G20    N/A
$$

MTZ011-013-016-021-035-040-045-047-050-051-271400-
NORTH CENTRAL MONTANA
CITY           SKY/WX    TMP DP  RH WIND       PRES   REMARKS
HAVRE          MOCLDY    45  37  74 SW13      30.00S
LEWISTOWN      PTCLDY    45  34  65 SW10      30.07S
* N BAR RANCH  CLEAR     48  32  54 W10       30.08S
* CHESTER      N/A       44  34  68 NW3G9      N/A
* DENTON       N/A       42  31  65 SW9        N/A
* GEYSER       N/A       42  26  53 W11        N/A
* JUDITH GAP   N/A       39  30  70 SE7G13     N/A   WCI  34
* LOMA         N/A       44  34  68 NW4        N/A
$$

MTZ017>020-022>027-061-062-271400-
NORTHEAST MONTANA
CITY           SKY/WX    TMP DP  RH WIND       PRES   REMARKS
GLASGOW        PTCLDY    36  30  79 NW8       29.95R WCI  30
GLENDIVE       MOCLDY    36  30  79 CALM      29.95S
JORDAN         PTCLDY    43  37  79 W8        29.99R
SIDNEY         MOCLDY    34  30  85 CALM      29.94S
WOLF POINT     MOCLDY    36  32  85 SW6       29.95R WCI  31
* BEAVER HILL  N/A       39  33  79 SW16       N/A   WCI  30
* CIRCLE       N/A       43  36  76 W3G8       N/A
* LINDSAY DVD  N/A       46  36  68 W16G24     N/A
* NAVAJO       N/A       36  32  85 W7         N/A   WCI  30
* SACO         N/A       34  32  92 NE4        N/A
$$

MTZ028>042-056>058-271400-
SOUTHCENTRAL AND SOUTHEAST MONTANA
CITY           SKY/WX    TMP DP  RH WIND       PRES   REMARKS
BAKER          CLOUDY    36  32  85 CALM      29.97F
BILLINGS       MOCLDY    46  36  68 SW9       30.10S
LIVINGSTON     PTCLDY    46  32  58 NW13G22   30.17S
MILES CITY     CLOUDY    39  34  82 NW9       29.99F WCI  33
* ALZADA       N/A       44  38  80 W4         N/A
* HYSHAM       N/A       46  32  58 W4         N/A
* LAME DEER    N/A       48  35  61 W12        N/A
* REED POINT   N/A       53  31  43 W15G20     N/A
* ROSCOE HILL  N/A       51  14  23 SW2G8      N/A
$$

REGIONAL REPORTS...DAKOTAS
CITY           SKY/WX    TMP DP  RH WIND       PRES   REMARKS
WILLISTON      MOCLDY    36  30  79 S6        29.95S WCI  31
DICKINSON      MOCLDY    32  28  85 S17       29.95F WCI  21
CROSBY         MOCLDY    32  32 100 S12       29.93F WCI  23
WATFORD CITY   CLEAR     34  32  92 S7        29.94F WCI  28
BISMARCK       CLOUDY    27  16  63 S14       30.12F WCI  16
GRAND FORKS    CLOUDY    18  12  77 S5        30.24F WCI  11
FARGO          PTCLDY    12   9  88 S5        30.26F WCI   4
BUFFALO SD     CLOUDY    32  28  85 S10       29.94F WCI  24
RAPID CITY     MOCLDY    32  28  85 SE6       30.04F WCI  26
$$

REGIONAL REPORTS...WYOMING/IDAHO/WASHINGTON
CITY           SKY/WX    TMP DP  RH WIND       PRES   REMARKS
GILLETTE       MOCLDY    43  37  79 W13       30.10R
SHERIDAN       PTCLDY    46  34  63 W10       30.11S
CODY           PTCLDY    52  28  40 NW7       30.15S
YELLOWSTONE LA PTCLDY    21  19  92 CALM      30.36F
SALMON         CLEAR     32  28  85 CALM      30.30S
MULLAN PASS    CLEAR     39  37  93 S8        30.19S WCI  33
SAND POINT     FOG       37  37 100 CALM      30.17S VSB 3/4
SPOKANE        FOG       43  43 100 NE8       30.12F VSB 1/2

$$



USA.gov is the U.S. government's official web portal to all federal, state and local government web resources and services.